This is the latest recevied weather packets stored in our database for station/object N7CW. If no packets are shown the sender has not sent any weather packets the latest 10 day(s).
| Time | Temp. | Humidity | Pressure | Rain* | Wind** | Luminosity | Snow |
|---|---|---|---|---|---|---|---|
| 1777338044 | 12.78° C | 31% | 1014.4 hPa | 0 mm | - | 91 W/m² | - |
| 1777337740 | 12.22° C | 30% | 1014.2 hPa | 0 mm | - | 102 W/m² | - |
| 1777337438 | 12.78° C | 31% | 1014.5 hPa | 0 mm | - | 116 W/m² | - |
| 1777337134 | 12.78° C | 30% | 1014.4 hPa | 0 mm | - | 129 W/m² | - |
| 1777336832 | 12.78° C | 30% | 1014.5 hPa | 0 mm | - | 142 W/m² | - |
| 1777336531 | 12.78° C | 30% | 1014.2 hPa | 0 mm | - | 156 W/m² | - |
| 1777336228 | 12.78° C | 30% | 1014.1 hPa | 0 mm | - | 172 W/m² | - |
| 1777335926 | 12.78° C | 30% | 1014.4 hPa | 0 mm | - | 187 W/m² | - |
| 1777335622 | 12.78° C | 29% | 1014.2 hPa | 0 mm | - | 201 W/m² | - |
| 1777335320 | 12.78° C | 28% | 1014.1 hPa | 0 mm | - | 217 W/m² | - |
| 1777335017 | 13.33° C | 27% | 1014.2 hPa | 0 mm | - | 234 W/m² | - |
| 1777334714 | 12.78° C | 28% | 1014.6 hPa | 0 mm | - | 250 W/m² | - |
| 1777334412 | 12.78° C | 28% | 1014.5 hPa | 0 mm | - | 267 W/m² | - |
| 1777334108 | 13.33° C | 27% | 1014.2 hPa | 0 mm | - | 284 W/m² | - |
| 1777333802 | 13.33° C | 27% | 1014.5 hPa | 0 mm | - | 302 W/m² | - |
| 1777333499 | 12.78° C | 27% | 1014.4 hPa | 0 mm | - | 317 W/m² | - |
| 1777333196 | 13.33° C | 27% | 1014.4 hPa | 0 mm | - | 335 W/m² | - |
| 1777332894 | 13.89° C | 26% | 1014.4 hPa | 0 mm | - | 348 W/m² | - |
| 1777332591 | 13.89° C | 26% | 1014.1 hPa | 0 mm | - | 366 W/m² | - |
| 1777332288 | 12.78° C | 27% | 1014.5 hPa | 0 mm | - | 385 W/m² | - |
| 1777331984 | 12.78° C | 26% | 1014.5 hPa | 0 mm | - | 399 W/m² | - |
| 1777331683 | 13.33° C | 26% | 1014.4 hPa | 0 mm | - | 416 W/m² | - |
| 1777331379 | 13.33° C | 26% | 1014.4 hPa | 0 mm | - | 431 W/m² | - |
| 1777331077 | 13.33° C | 26% | 1014.4 hPa | 0 mm | - | 447 W/m² | - |
| 1777330773 | 13.89° C | 26% | 1014 hPa | 0 mm | - | 462 W/m² | - |
* Rain latest hour (hover to see other rain measurements)
** Current wind speed in m/s (hover to see current wind gust speed)